Location: Dalton
(34.7700°N, 84.9700°W)
Time: 12:53:27
(UTC-04:00)

Hubble Space Telescope - Pass Details

Date: 10 October 2017
Orbit: 537 x 541 km, 28.5° (Epoch: 17 October)

Event Time Altitude Azimuth Distance (km) Brightness Sun altitude
Exits shadow 06:43:39 13° 230° (SW) 1,621 2.8 -12.7°
Maximum altitude 06:45:31 16° 199° (SSW) 1,427 2.7 -12.3°
Drops below altitude 10° 06:48:08 10° 160° (SSE) 1,784 3.7 -11.8°
Sets 06:51:04 0° 139° (SE) 2,674 5.0 -11.2°
